Regional Weather Roundup
Issued by NWS

Current Version | Previous Version | Text Only | Print | Product List | Glossary Off
Versions: 1 2 3 4 5 6 7 8 9 10 11 12 13 14 15 16 17 18 19 20 21 22 23 24 25 26 27 28 29 30 31 32 33 34 35 36 37 38 39 40 41 42 43 44 45 46 47 48 49 50

000
ASUS44 KMEG 191910
RWRTN
TENNESSEE HOURLY STATE WEATHER ROUNDUP
NATIONAL WEATHER SERVICE MEMPHIS TN
200 PM CDT THU OCT 19 2017

TNZ002-004-019-021-049-052-054-088>092-192000-
WEST TENNESSEE

CITY           SKY/WX    TMP DP  RH WIND       PRES   REMARKS
MEMPHIS INTL   FAIR      75  49  39 NE3       30.22F
NWS MEMPHIS      N/A     75 N/A N/A MISG        N/A
JACKSON        FAIR      74  48  39 CALM      30.23F
SOMERVILLE     SUNNY     75  50  41 VRB3      30.22F
COVINGTON      SUNNY     75  48  38 CALM      30.22F
BOLIVAR        SUNNY     73  50  43 SE3       30.22F
PARIS          SUNNY     73  50  43 SE6       30.22F
HUNTINGDON     SUNNY     75  48  38 CALM      30.22F
LEXINGTON      SUNNY     73  48  40 CALM      30.24F
SELMER         SUNNY     73  48  40 CALM      30.23F
SAVANNAH       SUNNY     73  46  38 CALM      30.23F
$$

TNZ008-025-027-028-033-062-065-066-192000-
NORTH MIDDLE TENNESSEE

CITY           SKY/WX    TMP DP  RH WIND       PRES   REMARKS
NASHVILLE      FAIR      73  44  35 CALM      30.26F
PORTLAND       SUNNY     72  50  46 W5        30.25F HAZE
CLARKSVILLE    FAIR      73  48  41 VRB3      30.24F
SMYRNA         FAIR      73  45  36 CALM      30.27F
COOKEVILLE     SUNNY     72  43  35 CALM      30.27F
GALLATIN       SUNNY     73  45  35 CALM      30.28F
CROSSVILLE     FAIR      69  42  37 NE6       30.30F
$$

TNZ061-075-076-078-094-096-097-192000-
SOUTH MIDDLE TENNESSEE

CITY           SKY/WX    TMP DP  RH WIND       PRES   REMARKS
FAYETTEVILLE   SUNNY     72  43  35 CALM      30.26F
TULLAHOMA      SUNNY     72  39  30 CALM      30.28F
WINCHESTER     SUNNY     72  43  35 CALM        N/A
COLUMBIA       SUNNY     72  45  37 CALM      30.23F
SHELBYVILLE    SUNNY     72  43  35 N5        30.26F
$$

TNZ017-018-042-046-047-192000-
NORTHEAST TENNESSEE

CITY           SKY/WX    TMP DP  RH WIND       PRES   REMARKS
TRI CITIES     FAIR      69  43  38 CALM      30.29F
ELIZABETHTON   SUNNY     70  39  32 CALM      30.29F
$$

TNZ012-013-036-069-073-074-192000-
CENTRAL EAST TENNESSEE

CITY           SKY/WX    TMP DP  RH WIND       PRES   REMARKS
KNOXVILLE      FAIR      70  46  42 W3        30.28F
OAK RIDGE      FAIR      69  48  47 S5        30.29
DOWNTOWN KNOXV SUNNY     72  43  35 CALM      30.29F
GATLINBURG     SUNNY     72  41  33 NW5       30.28F
MORRISTOWN     SUNNY     68  39  34 CALM      30.29F
JACKSBORO      SUNNY     70  48  46 S5        30.32F
$$

TNZ083-085-099-192000-
SOUTHEAST TENNESSEE

CITY           SKY/WX    TMP DP  RH WIND       PRES   REMARKS
CHATTANOOGA    FAIR      72  43  35 CALM      30.28F
DAYTON         CLEAR     70  52  52 CALM      30.27F
$$

SKY/WX REPORTED AS FAIR MEANS FEW OR NO CLOUDS BELOW
12 THOUSAND FEET.





USA.gov is the U.S. government's official web portal to all federal, state and local government web resources and services.